Regional Weather Roundup
Issued by NWS

Home | Current Version | Previous Version | Graphics & Text | Print | Product List | Glossary On
Versions: 1 2 3 4 5 6 7 8 9 10 11 12 13 14 15 16 17 18 19 20 21 22 23 24 25 26 27 28 29 30 31 32 33 34 35 36 37 38 39 40 41 42 43 44 45 46 47 48 49 50
000
ASUS45 KPSR 260400
RWRAZ

PRELIMINARY ARIZONA REGIONAL HOURLY WEATHER ROUNDUP
NATIONAL WEATHER SERVICE PHOENIX AZ
900 PM MST SUN JAN 25 2015

NOTE: FAIR INDICATES FEW OR NO CLOUDS BELOW 12,000 FEET WITH NO
SIGNIFICANT WEATHER AND/OR OBSTRUCTIONS TO VISIBILITY.

AZZ001>003-036-260500-
NORTHWEST ARIZONA

CITY           SKY/WX    TMP DP  RH WIND       PRES   REMARKS
KINGMAN        CLOUDY    51  27  39 E8        30.17S
$$

AZZ004>008-015-016-018-260500-
NORTH CENTRAL ARIZONA

CITY           SKY/WX    TMP DP  RH WIND       PRES   REMARKS
GRAND CANYON   CLEAR     37  21  52 NE9       30.34S WCI  30
PRESCOTT       MOCLDY    43  23  45 CALM      30.23R
FLAGSTAFF      NOT AVBL
PAYSON         PTCLDY    52  19  28 CALM      30.27R
$$

AZZ009>014-017-260500-
NORTHEAST ARIZONA

CITY           SKY/WX    TMP DP  RH WIND       PRES   REMARKS
WINSLOW        CLEAR     34  25  69 SW6       30.30R WCI  29
SAINT JOHNS    CLEAR     34  22  61 S6        30.31R WCI  29
WINDOW ROCK    CLEAR     32  24  72 CALM      30.33R
$$

AZZ023-260500-
GREATER PHOENIX AREA

CITY           SKY/WX    TMP DP  RH WIND       PRES   REMARKS
PHOENIX        MOCLDY    61  30  31 CALM      30.07R
GLENDALE       MOCLDY    61  30  31 CALM      30.09R
LUKE AFB       NOT AVBL
DEER VALLEY    PTCLDY    60  26  27 NE6       30.09R
SCOTTSDALE     PTCLDY    61  27  27 N3        30.10R
MESA-GATEWAY   MOCLDY    55  30  38 E7        30.10S
CHANDLER       PTCLDY    57  32  38 VRB7      30.08R
$$

AZZ027-028-260500-
SOUTHWEST MARICOPA COUNTY AND PINAL COUNTY

CITY           SKY/WX    TMP DP  RH WIND       PRES   REMARKS
CASA GRANDE    PTCLDY    63  19  19 E7        30.08R
GILA BEND      FAIR      58  22  24 S6        30.06R
$$

AZZ503-504-507>509-260500-
SOUTHEAST ARIZONA

CITY           SKY/WX    TMP DP  RH WIND       PRES   REMARKS
TUCSON         PTCLDY    61  17  18 SE5       30.13R
DAVIS-MONTHAN  MOCLDY    56  20  24 CALM      30.11R
NOGALES        CLOUDY    57  23  26 CALM      30.15S
SIERRA VISTA   MOCLDY    53  17  24 NE3       30.21S
SAFFORD        PTCLDY    49  22  34 E10       30.21S
$$

AZZ020-021-025-026-031-260500-
SOUTHWEST ARIZONA

CITY           SKY/WX    TMP DP  RH WIND       PRES   REMARKS
YUMA           MOCLDY    59  36  42 N5        30.05R
$$

CAZ031-033-041-043-047-048-061-260500-
SOUTHERN CALIFORNIA

CITY           SKY/WX    TMP DP  RH WIND       PRES   REMARKS
DOWNTOWN L.A.  PTCLDY    64  35  34 CALM      30.02R
L.A. AIRPORT   MOCLDY    69  27  20 NW5       30.02S
SAN DIEGO      CLOUDY    71  27  19 N3        30.02S
BURBANK        CLEAR     67  32  27 CALM      30.04R
ONTARIO        CLOUDY    65  29  25 W6        30.05R
RIVERSIDE      MOCLDY    67  31  26 E5        30.05R
PALM SPRINGS   CLOUDY    70  30  22 W5        30.07R
EL CENTRO NAS  MOCLDY    61  28  28 SW9       30.03S
IMPERIAL       MOCLDY    62  32  32 SW5       30.03S
BLYTHE         MOCLDY    60  31  33 N7        30.05R
$$

NVZ020-UTZ003-260500-
SOUTHERN NEVADA-UTAH

CITY           SKY/WX    TMP DP  RH WIND       PRES   REMARKS
LAS VEGAS      NOT AVBL
SALT LAKE CITY PTCLDY    35  30  82 CALM      30.40R
$$

NMZ009-TXZ055-260500-
NEW MEXICO-WEST TEXAS

CITY           SKY/WX    TMP DP  RH WIND       PRES   REMARKS
ALBUQUERQUE    PTCLDY    42  24  49 CALM      30.29R
EL PASO        MOCLDY    47  28  47 NE5       30.27S
$$


........................KEY........................
SKY/WX - SKY CONDITION/WEATHER
TMP    - TEMPERATURE IN FAHRENHEIT
DP     - DEW POINT IN FAHRENHEIT
RH     - RELATIVE HUMIDITY IN PERCENT
WIND   - DIRECTION AND SPEED IN MILES PER HOUR (MPH)
VRB    - VARIABLE WIND DIRECTION
PRES   - MEAN SEA LEVEL PRESSURE IN INCHES OF MERCURY
         F - FALLING PRESSURE   R - RISING PRESSURE
         S - STEADY PRESSURE
VSB    - VISIBILITY IN MILES
HX     - HEAT INDEX IN FAHRENHEIT
WCI    - WIND CHILL INDEX IN FAHRENHEIT
TC     - TEMPERATURE IN CELSIUS WHICH IS ALSO KNOWN AS
         TEMPERATURE IN CENTIGRADE
AFB    - AIR FORCE BASE
         LUKE AFB IS LUKE AIR FORCE BASE
         DAVIS-MONTHAN IS DAVIS-MONTHAN AIR FORCE BASE
NAS    - NAVAL AIR STATION
         EL CENTRO NAS IS EL CENTRO NAVAL AIR STATION
N/A    - NOT AVAILABLE



USA.gov is the U.S. government's official web portal to all federal, state and local government web resources and services.